Bradshaw AFB, HI

12:49 AM HST on December 13, 2019 (GMT -1000)
Bradshaw Army Air Field

Weather History for PHSF - October, 2019

Change the Weather History Date:

Wednesday, October 23, 2019

  Actual Average Record
Temperature  
Mean Temperature 59 °F -  
Max Temperature 72 °F 69 °F 78 °F (1973)
Min Temperature 46 °F 48 °F 34 °F (1973)
Degree Days  
Heating Degree Days 6    
Growing Degree Days 9 (Base 50)    
Moisture  
Dew Point 52 °F    
Average Humidity 78    
Maximum Humidity 100    
Minimum Humidity 49    
Precipitation  
Precipitation 0.00 in - - ()
Sea Level Pressure  
Sea Level Pressure 29.95 in    
Wind  
Wind Speed 6 mph (WSW)    
Max Wind Speed 16 mph    
Max Gust Speed 23 mph    
Visibility 9 miles    
Events Fog    
Averages and records for this station are not official NWS values.
T = Trace of Precipitation, MM = Missing Value Source: NWS Daily Summary

Daily Weather History Graph

Daily Weather History Graph

Search for Another Location

Airport or City:

Astronomy

Oct. 23, 2019 Rise Set
Actual Time 6:19 AM HST 5:53 PM HST
Civil Twilight 5:57 AM HST 6:15 PM HST
Nautical Twilight 5:31 AM HST 6:41 PM HST
Astronomical Twilight 5:05 AM HST 7:07 PM HST
Moon 1:47 AM HST (10/23) 3:00 PM HST (10/23)
Length of Visible Light 12h 18m
Length of Day
11h 33m
Waning Crescent, 24% of the Moon is Illuminated
Oct 23
Waning Crescent
Oct 27
New
Nov 4
First Quarter
Nov 12
Full
Nov 19
Last Quarter

Hourly Weather History & Observations

Time (HST) Temp. Windchill Dew Point Humidity Pressure Visibility Wind Dir Wind Speed Gust Speed Precip Events Conditions
12:58 AM 51.6 °F - 38.1 °F 60% 29.95 in 10.0 mi SSE 9.2 mph - N/A   Clear
1:58 AM 50.0 °F - 39.9 °F 68% 29.94 in 10.0 mi SE 8.1 mph - N/A   Clear
3:58 AM 48.7 °F - 44.6 °F 86% 29.93 in 10.0 mi SE 4.6 mph - N/A   Clear
4:58 AM 46.2 °F 45.0 °F 38.5 °F 74% 29.95 in 10.0 mi SSE 3.5 mph - N/A   Clear
5:58 AM 46.6 °F - 36.5 °F 68% 29.99 in 10.0 mi SE 6.9 mph - N/A   Clear
6:58 AM 50.5 °F - 36.7 °F 59% 29.98 in 9.0 mi SSE 5.8 mph - N/A   Clear
7:58 AM 61.9 °F - 44.2 °F 52% 29.96 in 10.0 mi Calm Calm - N/A   Clear
8:58 AM 64.4 °F - 55.4 °F 73% 29.98 in 9.0 mi SSW 10.4 mph - N/A   Clear
9:58 AM 68.9 °F - 48.7 °F 49% 29.95 in 10.0 mi WSW 8.1 mph - N/A   Clear
10:58 AM 69.4 °F - 53.1 °F 56% 29.95 in 10.0 mi WSW 3.5 mph - N/A   Clear
11:53 AM 69.8 °F - 55.4 °F 60% 29.93 in 10.0 mi NW 8.1 mph 18.4 mph N/A   Mostly Cloudy
11:58 AM 70.7 °F - 55.6 °F 59% 29.92 in 10.0 mi NNW 13.8 mph - N/A   Scattered Clouds
12:58 PM 70.9 °F - 55.8 °F 59% 29.90 in 10.0 mi NW 5.8 mph - N/A   Partly Cloudy
1:12 PM 71.6 °F - 57.2 °F 60% 29.89 in 10.0 mi NNW 11.5 mph 18.4 mph N/A   Partly Cloudy
1:58 PM 72.0 °F - 57.7 °F 61% 29.88 in 10.0 mi NW 16.1 mph 23.0 mph N/A   Clear
2:58 PM 70.3 °F - 56.7 °F 62% 29.87 in 10.0 mi NW 15.0 mph 19.6 mph N/A   Partly Cloudy
3:58 PM 69.3 °F - 56.5 °F 64% 29.87 in 10.0 mi NNW 11.5 mph - N/A   Clear
4:58 PM 65.7 °F - 58.6 °F 78% 29.92 in 10.0 mi NW 10.4 mph - N/A   Scattered Clouds
5:38 PM 62.6 °F - 57.2 °F 82% 29.93 in 10.0 mi NW 4.6 mph - N/A   Mostly Cloudy
5:48 PM 60.8 °F - 57.2 °F 88% 29.94 in 9.0 mi Calm Calm - N/A   Scattered Clouds
5:58 PM 60.8 °F - 57.2 °F 88% 29.95 in 10.0 mi Calm Calm - N/A   Mostly Cloudy
6:38 PM 60.8 °F - 59.0 °F 94% 29.96 in 10.0 mi NW 4.6 mph - N/A   Overcast
6:58 PM 59.0 °F - 57.2 °F 94% 29.96 in 3.0 mi Calm Calm - N/A   Overcast
7:03 PM 59.0 °F - 57.2 °F 94% 29.96 in 1.8 mi Calm Calm - N/A   Overcast
7:08 PM 57.2 °F - 57.2 °F 100% 29.96 in 1.0 mi Calm Calm - N/A   Mist
7:13 PM 57.2 °F - 57.2 °F 100% 29.96 in 0.5 mi Calm Calm - N/A Fog Fog
7:38 PM 57.2 °F - 57.2 °F 100% 29.95 in 3.0 mi SE 5.8 mph - N/A   Mostly Cloudy
7:48 PM 57.2 °F - 55.4 °F 94% 29.95 in 10.0 mi SE 4.6 mph - N/A   Scattered Clouds
7:58 PM 56.3 °F - 55.8 °F 98% 29.96 in 10.0 mi SE 4.6 mph - N/A   Partly Cloudy
8:58 PM 52.7 °F - 48.0 °F 84% 29.98 in 10.0 mi Calm Calm - N/A   Mostly Cloudy
9:23 PM 57.2 °F - 51.8 °F 82% 29.96 in 10.0 mi Calm Calm - N/A   Overcast
9:38 PM 55.4 °F - 51.8 °F 88% 29.96 in 10.0 mi Calm Calm - N/A   Mostly Cloudy
9:48 PM 53.6 °F - 51.8 °F 94% 29.98 in 9.0 mi Calm Calm - N/A   Scattered Clouds
9:58 PM 53.4 °F - 49.8 °F 88% 29.96 in 9.0 mi Calm Calm - N/A   Partly Cloudy
10:58 PM 50.2 °F - 47.5 °F 90% 29.96 in 10.0 mi Calm Calm - N/A   Partly Cloudy
11:58 PM 49.1 °F - 47.3 °F 93% 30.29 in 9.0 mi ESE 3.5 mph - N/A   Partly Cloudy